Weather History for KQIR - February, 2013

Change the Weather History Date:

Tuesday, February 19, 2013

  Actual Average Record
Temperature  
Mean Temperature 68 °F -  
Max Temperature 79 °F - - ()
Min Temperature 56 °F - - ()
Cooling Degree Days 2    
Growing Degree Days 18 (Base 50)    
Moisture  
Dew Point 50 °F    
Average Humidity 59    
Maximum Humidity 84    
Minimum Humidity 25    
Precipitation  
Precipitation 0.00 in - - ()
Sea Level Pressure  
Sea Level Pressure 29.94 in    
Wind  
Wind Speed 6 mph ()    
Max Wind Speed 14 mph    
Max Gust Speed -    
Visibility 6.2 miles    
Events      
T = Trace of Precipitation, MM = Missing Value Source: Averaged Metar Reports

Daily Weather History Graph

Daily Weather History Graph

Search for Another Location

Airport or City:

Trip Planner

Search our weather history database for the weather conditions in past years. The results will help you decide how hot, cold, wet, or windy it might be!

Date:

Astronomy

Feb. 19, 2013 Rise Set
Actual Time 6:06 AM AST 5:31 PM AST
Civil Twilight 5:43 AM AST 5:54 PM AST
Nautical Twilight 5:16 AM AST 6:21 PM AST
Astronomical Twilight 4:49 AM AST 6:47 PM AST
Moon 12:02 PM AST (2/19) 1:00 AM AST (2/19)
Length of Visible Light 12h 11m
Length of Day
11h 24m
Waxing Gibbous, 64% of the Moon is Illuminated
Feb 19
Waxing Gibbous
Feb 25
Full
Mar 5
Last Quarter
Mar 11
New
Mar 19
First Quarter

Hourly Weather History & Observations

Time (AST) Temp. Dew Point Humidity Pressure Visibility Wind Dir Wind Speed Gust Speed Precip Events Conditions
12:55 AM 59.9 °F 51.4 °F 74% 29.95 in 6.2 mi NW 5.8 mph - N/A   Clear
1:55 AM 59.5 °F 51.8 °F 76% 29.94 in 6.2 mi NW 6.9 mph - N/A   Clear
2:55 AM 58.3 °F 52.0 °F 80% 29.93 in 6.2 mi NW 9.2 mph - N/A   Clear
3:55 AM 57.4 °F 52.0 °F 82% 29.93 in 6.2 mi NW 6.9 mph - N/A   Clear
4:55 AM 58.5 °F 52.9 °F 82% 29.93 in 6.2 mi NNW 8.1 mph - N/A   Clear
5:55 AM 56.5 °F 51.6 °F 84% 29.96 in 6.2 mi NW 6.9 mph - N/A   Clear
6:55 AM 58.1 °F 52.5 °F 82% 29.98 in 6.2 mi NNW 8.1 mph - N/A   Clear
7:55 AM 63.7 °F 52.7 °F 67% 29.99 in 6.2 mi NNW 8.1 mph - N/A   Clear
8:55 AM 68.4 °F 52.7 °F 57% 30.01 in 6.2 mi NNW 12.7 mph - N/A   Clear
9:55 AM 71.2 °F 50.2 °F 47% 30.00 in 6.2 mi North 9.2 mph - N/A   Partly Cloudy
10:55 AM 73.9 °F 46.2 °F 37% 29.98 in 6.2 mi North 9.2 mph - N/A   Partly Cloudy
11:55 AM 76.5 °F 43.5 °F 31% 29.95 in 6.2 mi NNW 6.9 mph - N/A   Partly Cloudy
12:55 PM 77.7 °F 42.8 °F 29% 29.91 in 6.2 mi NNW 3.5 mph - N/A   Scattered Clouds
1:55 PM 78.6 °F 42.4 °F 28% 29.89 in 6.2 mi Calm Calm - N/A   Partly Cloudy
2:55 PM 79.5 °F 41.2 °F 25% 29.89 in 6.2 mi Calm Calm - N/A   Scattered Clouds
3:55 PM 75.7 °F 48.9 °F 39% 29.89 in 6.2 mi East 13.8 mph - N/A   Clear
4:55 PM 73.6 °F 46.2 °F 38% 29.90 in 6.2 mi East 12.7 mph - N/A   Clear
5:55 PM 71.4 °F 39.9 °F 32% 29.91 in 6.2 mi East 6.9 mph - N/A   Clear
6:55 PM 68.9 °F 56.1 °F 64% 29.93 in 6.2 mi ENE 5.8 mph - N/A   Clear
7:55 PM 68.2 °F 56.7 °F 67% 29.95 in 6.2 mi NE 3.5 mph - N/A   Clear
8:55 PM 67.3 °F 56.3 °F 68% 29.94 in 6.2 mi Calm Calm - N/A   Clear
9:55 PM 64.2 °F 53.8 °F 69% 29.94 in 6.2 mi Calm Calm - N/A   Clear
10:55 PM 63.5 °F 55.8 °F 76% 29.94 in 6.2 mi Calm Calm - N/A   Clear
11:55 PM 64.2 °F 55.6 °F 73% 29.93 in 6.2 mi North 5.8 mph - N/A   Clear